NIMIQ 4

Last updated on Thu Jul 03 2025 00:02:45 GMT+0000 (Coordinated Universal Time)

1 33373U 08044A 25183.55037490 -.00000212 00000+0 00000+0 0 9991 2 33373 0.0424 64.7991 0001987 39.4103 292.7719 1.00268002 61476
UTC large
Height (km)
Speed (km/s)
/
Latitude / Longitude
Inclination (degrees)
Orbital Period (minutes)
Azimuth
Elevation
Range (km)
Doppler Factor

Next 0 passes for location: London (51.5072 / 0.1276)

Sorry there are no passes over London.